Volver al catálogo

ONEWEB-0682

ActivoComunicacionesPO
NORAD 56718·PAYLOAD·🇬🇧 United Kingdom

Lanzado May 20, 2023 desde Vandenberg Space Force Base

Loading…

Próximos Pases (próximas 24 horas)

TLE

ActualizadoSource: CelesTrak SupGP

Época: Sep 14, 2026, 20:43 UTC

1 56718C 23068J   26257.86334907  .00002815  00000+0  74866-2 0  2573
2 56718  87.8993 241.3166 0001818  99.3655 298.6426 13.15548475    12

Sigue ONEWEB-0682 en tiempo real con AllMySat

Download on the App Store